Hourly Data Report for October 16, 2017

All times are specified in Local Standard Time (LST). Add 1 hour to adjust for Daylight Saving Time where and when it is observed.

OTTAWA INTL A
ONTARIO

45°19'00.000" N
75°40'00.000" W
114.90 m
6106001
71628
YOW

Download Data

Hourly Data (October 2017)
Hourly Data Report for October 16, 2017
Temp Definition
°C
Dew Point Temp Definition
°C
Rel Hum Definition
%
Wind Dir Definition
10's deg

Wind Spd Definition
km/h
Visibility Definition
km
Stn Press Definition
kPa
Hmdx Definition


Wind Chill Definition


Weather Definition


TIME
00:00 Legend Double Dagger 6.8 2.2 73 33 24 24.1 99.80     LegendNANA
01:00 Legend Double Dagger 5.9 2.6 79 31 23 24.1 99.96     Cloudy
02:00 Legend Double Dagger 6.2 1.3 71 33 23 24.1 100.10     LegendNANA
03:00 Legend Double Dagger 5.7 0.8 71 33 22 24.1 100.17     LegendNANA
04:00 Legend Double Dagger 4.9 1.2 77 31 22 24.1 100.29     Rain
05:00 Legend Double Dagger 4.6 1.1 78 31 18 24.1 100.35     Rain
06:00 Legend Double Dagger 4.2 1.4 81 31 21 24.1 100.44     LegendNANA
07:00 Legend Double Dagger 4.0 1.4 83 31 17 24.1 100.56     Mainly Clear
08:00 Legend Double Dagger 5.2 1.5 77 31 19 24.1 100.64     LegendNANA
09:00 Legend Double Dagger 5.8 0.4 68 32 29 24.1 100.68     LegendNANA
10:00 Legend Double Dagger 6.4 -0.6 61 33 29 24.1 100.68     Mostly Cloudy
11:00 Legend Double Dagger 6.6 0.2 64 33 18 24.1 100.70     LegendNANA
12:00 Legend Double Dagger 5.9 1.6 74 29 14 24.1 100.70     LegendNANA
13:00 Legend Double Dagger 7.3 -0.8 56 29 19 24.1 100.69     Mostly Cloudy
14:00 Legend Double Dagger 6.8 -2.4 52 26 13 24.1 100.72     LegendNANA
15:00 Legend Double Dagger 6.9 -1.7 54 32 15 24.1 100.77     LegendNANA
16:00 Legend Double Dagger 6.9 -2.3 52 31 20 24.1 100.78     Mostly Cloudy
17:00 Legend Double Dagger 6.7 -2.5 52 30 18 24.1 100.84     LegendNANA
18:00 Legend Double Dagger 4.5 -1.7 64 28 13 24.1 100.89     LegendNANA
19:00 Legend Double Dagger 2.4 -1.4 76 25 10 24.1 100.94     Clear
20:00 Legend Double Dagger 1.8 -1.4 79 25 11 24.1 100.96     LegendNANA
21:00 Legend Double Dagger 1.5 -0.8 85 24 9 24.1 100.99     LegendNANA
22:00 Legend Double Dagger 0.5 -1.6 86 24 9 24.1 101.00     Clear
23:00 Legend Double Dagger 0.2 -1.5 89 20 5 24.1 100.97     LegendNANA

Notes on Data Quality.

Legend

  • E = Estimated
  • M = Missing
  • NA = Not Available
  • ‡ = Partner data that is not subject to review by the National Climate Archives
Date modified: